Location: Skalnate Pleso
(49.1889°N, 20.2450°E)
Time: 05:41:50
(UTC+01:00)

Tsikada Rocket - Pass Details

Date: 19 November 2019
Orbit: 958 x 1009 km, 82.9° (Epoch: 12 December)

Event Time Altitude Azimuth Distance (km) Brightness Sun altitude
Rises 04:46:04 0° 351° (N) 3,749 6.9 -20.7°
Reaches altitude 10° 04:48:39 10° 354° (N) 2,791 6.3 -20.3°
Maximum altitude 04:55:04 72° 79° (ENE) 1,050 4.3 -19.2°
Drops below altitude 10° 05:01:21 10° 163° (SSE) 2,742 6.7 -18.2°
Sets 05:03:52 0° 166° (SSE) 3,679 7.3 -17.8°
